Location: 3 Angels Observatory
(30.5437°N, 88.5068°W)
Time: 21:50:09
(UTC-06:00)

Amateur Radio Satellites - All Passes

Search period start: 19 December 2014 21:20
Search period end: 20 December 2014 21:20
Location: 3 Angels Observatory, 30.5437°N, 88.5068°W

Satellite Date Start Highest point End Downlink Frequencies (MHz)
Time Altitude Azimuth
Oscar 11 19 Dec 21:25:18 21:29:21 40° 261° (W) 21:33:27 145.826/435.025
HUMSAT D 19 Dec 21:25:28 21:29:20 41° 74° (ENE) 21:33:14 437.325/437.525
RS-15 19 Dec 21:30:30 21:41:57 88° 245° (WSW) 21:53:56 29.354- 29.394
UKube-1 19 Dec 21:33:05 21:37:13 43° 260° (W) 21:41:21 .
BEESAT 3 19 Dec 21:37:03 21:39:21 14° 53° (NE) 21:41:39 437.485
CUBEBUG 2 19 Dec 21:38:22 21:42:21 47° 261° (W) 21:46:25 437.445
TIGRISAT 19 Dec 21:48:54 21:52:50 26° 97° (E) 21:56:45 435.000
ISS 19 Dec 21:49:36 21:52:31 31° 231° (SW) 21:55:25 145.825
CINEMA 3 19 Dec 21:49:47 21:52:49 20° 264° (W) 21:55:52 145.822/145.860
ESTCUBE 1 19 Dec 21:50:38 21:54:34 30° 72° (ENE) 21:58:30 437.505/2401.250
VELOX 1 19 Dec 21:51:08 21:55:34 86° 77° (ENE) 22:00:00 145.980
ZACube-1 19 Dec 21:53:14 21:57:11 44° 261° (W) 22:01:13 437.345
PCSat 19 Dec 21:53:42 21:55:16 11° 51° (NE) 21:56:48 145.827
POPSAT HIP 1 19 Dec 22:01:19 22:04:31 21° 96° (E) 22:07:44 437.405
DANDE 19 Dec 22:04:21 22:10:46 27° 272° (W) 22:17:35 436.750
BEESAT 2 19 Dec 22:14:50 22:18:37 33° 58° (ENE) 22:22:21 435.950
UNISAT 6 19 Dec 22:16:57 22:21:36 57° 100° (E) 22:26:14 437.425
UWE-3 19 Dec 22:19:58 22:22:44 17° 265° (W) 22:25:33 435.000/436.395/437.385
FUNcube-1 19 Dec 22:21:17 22:24:22 20° 264° (W) 22:27:30 145.935
TISAT 1 19 Dec 22:21:30 22:23:23 13° 68° (ENE) 22:25:16 437.305
SPROUT 19 Dec 22:21:59 22:23:35 12° 68° (ENE) 22:25:11 437.525
DUCHIFAT 1 19 Dec 22:29:03 22:33:09 46° 100° (E) 22:37:15 145.980
BUGSAT 1 19 Dec 22:32:52 22:36:40 39° 99° (E) 22:40:30 437.445
AISAT 19 Dec 22:34:34 22:38:19 27° 262° (W) 22:42:04 437.250
QB50P2 19 Dec 22:41:47 22:46:03 71° 101° (ESE) 22:50:19 145.880/145.840
CUBEBUG 1 19 Dec 22:43:16 22:47:37 65° 259° (W) 22:51:57 437.445
50 SAT 19 Dec 22:47:06 22:50:06 20° 264° (W) 22:53:08 437.505
ANTELSAT 19 Dec 22:48:47 22:53:26 60° 285° (WNW) 22:58:04 437.575/2403.000
POLYITAN 1 19 Dec 22:50:15 22:54:33 89° 283° (WNW) 22:58:52 437.675
NANOSAT C BR1 19 Dec 22:53:21 22:57:36 83° 283° (WNW) 23:01:52 145.865
HUMSAT D 19 Dec 23:04:16 23:05:16 11° 267° (W) 23:06:16 437.325/437.525
QB50P1 19 Dec 23:07:41 23:11:50 53° 285° (WNW) 23:16:00 145.935-145.965
BEESAT 3 19 Dec 23:13:48 23:17:41 39° 247° (WSW) 23:21:30 437.485
AIST 2 19 Dec 23:15:03 23:19:20 73° 62° (ENE) 23:23:31 435.215
TIGRISAT 19 Dec 23:25:39 23:29:24 24° 289° (WNW) 23:33:09 435.000
ESTCUBE 1 19 Dec 23:28:11 23:31:23 19° 264° (W) 23:34:36 437.505/2401.250
PCSat 19 Dec 23:33:52 23:39:18 85° 247° (WSW) 23:44:41 145.827
POPSAT HIP 1 19 Dec 23:36:53 23:40:18 24° 288° (WNW) 23:43:44 437.405
YUBILEINY 19 Dec 23:39:22 23:48:06 78° 93° (E) 23:56:49 435.215
RS-15 19 Dec 23:46:30 23:52:54 17° 259° (W) 23:59:27 29.354- 29.394
BEESAT 2 19 Dec 23:54:04 23:56:32 16° 252° (WSW) 23:58:59 435.950
TISAT 1 19 Dec 23:54:54 23:58:49 38° 261° (W) 00:02:45 437.305
SPROUT 19 Dec 23:55:10 23:59:14 43° 261° (W) 00:03:19 437.525
UNISAT 6 19 Dec 23:56:22 23:57:49 11° 293° (WNW) 23:59:17 437.425
O/OREOS (USA 219) 20 Dec 00:01:10 00:05:28 49° 105° (ESE) 00:09:45 437.305
DUCHIFAT 1 20 Dec 00:07:20 00:08:33 11° 292° (WNW) 00:09:46 145.980
BUGSAT 1 20 Dec 00:10:19 00:11:46 12° 292° (WNW) 00:13:14 437.445
SWISSCUBE 20 Dec 00:16:36 00:21:09 45° 74° (ENE) 00:25:43 437.505
ITUPSAT 1 20 Dec 00:16:48 00:21:17 40° 73° (ENE) 00:25:46 437.325
AUBIESAT-1 20 Dec 00:26:49 00:30:58 31° 67° (ENE) 00:35:14 437.475
BEESAT 20 Dec 00:41:31 00:46:18 81° 76° (ENE) 00:51:07 436.000
M-CUBED/EXP-1 PRIME 20 Dec 00:51:10 00:55:51 64° 71° (ENE) 01:00:43 437.505
VERMONT LUNAR 20 Dec 01:08:46 01:11:14 18° 141° (SE) 01:13:42 437.305
Oscar 19 20 Dec 01:16:45 01:21:57 70° 102° (ESE) 01:27:06 437.125/150
PHONESAT 2.4 20 Dec 01:19:20 01:21:11 14° 139° (SE) 01:23:02 2401.200-2431.200
Gurwin Techsat 1B 20 Dec 01:22:55 01:25:49 15° 94° (E) 01:28:42 435.225
ITAMSAT 1 20 Dec 01:31:07 01:35:42 31° 98° (E) 01:40:15 435.822/435.867
YUBILEINY 20 Dec 01:40:26 01:45:39 17° 290° (WNW) 01:50:54 435.215
O/OREOS (USA 219) 20 Dec 01:43:33 01:45:06 12° 299° (WNW) 01:46:39 437.305
ITUPSAT 1 20 Dec 01:56:26 01:59:15 16° 265° (W) 02:02:05 437.325
STARS 20 Dec 01:56:36 02:00:56 67° 76° (ENE) 02:05:17 437.465
SWISSCUBE 20 Dec 01:56:45 01:59:09 14° 266° (W) 02:01:34 437.505
KKS-1 20 Dec 01:58:31 02:02:55 73° 258° (WSW) 02:07:21 437.445
AUBIESAT-1 20 Dec 02:02:06 02:05:49 23° 260° (W) 02:09:40 437.475
M-CUBED/EXP-1 PRIME 20 Dec 02:30:12 02:31:09 11° 264° (W) 02:32:06 437.505
VERMONT LUNAR 20 Dec 02:45:49 02:49:19 61° 333° (NNW) 02:52:49 437.305
PHONESAT 2.4 20 Dec 02:55:54 02:59:31 83° 331° (NNW) 03:03:09 2401.200-2431.200
Oscar 19 20 Dec 02:59:19 03:00:36 11° 295° (WNW) 03:01:53 437.125/150
Gurwin Techsat 1B 20 Dec 03:00:51 03:05:58 50° 286° (WNW) 03:11:03 435.225
AIST 1 20 Dec 03:02:30 03:06:09 27° 79° (E) 03:09:48
MOZHAYETS 4 20 Dec 03:04:42 03:07:04 14° 68° (ENE) 03:09:26
ITAMSAT 1 20 Dec 03:10:56 03:14:57 24° 291° (WNW) 03:18:59 435.822/435.867
HORYU 2 20 Dec 03:25:58 03:30:26 64° 284° (WNW) 03:34:53 437.375
GONETS M04 20 Dec 03:43:31 03:47:20 14° 80° (E) 03:51:07
AO-7 20 Dec 03:54:09 04:02:27 64° 104° (ESE) 04:10:41 29.400- 29.500
VERMONT LUNAR 20 Dec 04:25:27 04:28:04 19° 349° (N) 04:30:42 437.305
JAS-2 20 Dec 04:30:05 04:35:12 40° 98° (E) 04:40:02 435.910
PHONESAT 2.4 20 Dec 04:35:39 04:38:33 22° 346° (NNW) 04:41:28 2401.200-2431.200
MOZHAYETS 4 20 Dec 04:39:26 04:43:51 44° 261° (W) 04:48:17
AIST 1 20 Dec 04:40:56 04:43:31 16° 272° (W) 04:46:05
CUTE-I 20 Dec 04:56:29 04:58:36 12° 93° (E) 05:00:42 437.470
GONETS M04 20 Dec 05:34:00 05:42:51 88° 275° (W) 05:51:45
PRISM 20 Dec 05:37:36 05:41:48 67° 258° (WSW) 05:46:01 437.425
SO-50 20 Dec 05:40:54 05:45:18 32° 57° (ENE) 05:49:40 436.795
AO-7 20 Dec 05:48:16 05:54:32 24° 299° (WNW) 06:00:47 29.400- 29.500
STRAND 1 20 Dec 05:55:51 06:00:55 67° 75° (ENE) 06:05:59 437.568
Cubesat XI-IV 20 Dec 06:00:13 06:05:29 64° 102° (ESE) 06:10:45 437.490
CUBESAT XI-V 20 Dec 06:00:25 06:05:06 88° 77° (ENE) 06:09:47 437.345
VERMONT LUNAR 20 Dec 06:04:51 06:07:14 17° 6° (N) 06:09:36 437.305
PHONESAT 2.4 20 Dec 06:15:37 06:18:04 17° 4° (N) 06:20:30 2401.200-2431.200
JAS-2 20 Dec 06:16:20 06:19:53 18° 294° (WNW) 06:23:19 435.910
CUTE-I 20 Dec 06:33:43 06:38:56 59° 286° (WNW) 06:44:08 437.470
SO-50 20 Dec 07:21:48 07:25:38 23° 250° (WSW) 07:29:27 436.795
GONETS M04 20 Dec 07:36:47 07:40:44 14° 292° (WNW) 07:44:43
Cubesat XI-IV 20 Dec 07:42:48 07:44:58 13° 295° (WNW) 07:47:07 437.490
VERMONT LUNAR 20 Dec 07:42:49 07:46:09 38° 23° (NNE) 07:49:29 437.305
PHONESAT 2.4 20 Dec 07:54:07 07:57:26 33° 20° (NNE) 08:00:45 2401.200-2431.200
HO-68 20 Dec 07:56:55 08:03:03 30° 98° (E) 08:09:07 435.675
AAUSAT CUBESAT 2 20 Dec 08:02:48 08:04:40 13° 94° (E) 08:06:31 437.432
CANX-2 20 Dec 08:12:49 08:16:43 33° 98° (E) 08:20:35 2200.000
CINEMA 3 20 Dec 08:15:15 08:15:47 10° 93° (E) 08:16:19 145.822/145.860
BRITE-PL 20 Dec 08:23:09 08:27:51 50° 100° (E) 08:32:54 437.365/2234.400
COMPASS 1 20 Dec 08:35:53 08:39:54 40° 99° (E) 08:43:52 437.405
SEEDS 20 Dec 08:40:37 08:44:51 57° 100° (E) 08:49:02 437.485
CUSAT 1 20 Dec 08:41:35 08:44:07 21° 86° (E) 08:47:09 437.405
CUTE 1.7 + AOD 2 20 Dec 08:43:22 08:47:41 75° 101° (E) 08:51:57 437.475
TIGRISAT 20 Dec 08:45:04 08:46:19 11° 67° (ENE) 08:47:34 435.000
GOMX 1 20 Dec 08:52:08 08:57:00 74° 102° (ESE) 09:02:12 467.674
DX 1 20 Dec 08:55:43 08:58:54 20° 96° (E) 09:02:04 434.975-435.025
DELFI C3 20 Dec 08:55:50 08:59:03 22° 96° (E) 09:02:13 145.870
MaSat-1 20 Dec 09:02:25 09:03:08 11° 296° (WNW) 09:03:51 437.345
UNISAT 6 20 Dec 09:11:28 09:14:59 25° 71° (ENE) 09:18:34 437.425
DUCHIFAT 1 20 Dec 09:17:44 09:20:29 17° 70° (ENE) 09:23:15 145.980
HUMSAT D 20 Dec 09:17:56 09:19:18 11° 93° (E) 09:20:39 437.325/437.525
Oscar 11 20 Dec 09:18:08 09:22:25 54° 100° (E) 09:26:39 145.826/435.025
BUGSAT 1 20 Dec 09:19:35 09:21:42 14° 69° (ENE) 09:23:48 437.445
DOVE 4 20 Dec 09:19:42 09:24:33 76° 283° (WNW) 09:29:40 437.250
VERMONT LUNAR 20 Dec 09:21:15 09:24:25 32° 216° (SW) 09:27:36 437.305
UKube-1 20 Dec 09:26:27 09:30:37 46° 100° (E) 09:34:46 .
QB50P2 20 Dec 09:30:10 09:33:38 25° 72° (ENE) 09:37:07 145.880/145.840
DANDE 20 Dec 09:30:26 09:33:29 87° 96° (E) 09:37:29 436.750
PHONESAT 2.4 20 Dec 09:32:42 09:36:11 43° 214° (SW) 09:39:39 2401.200-2431.200
CUBEBUG 2 20 Dec 09:34:40 09:39:16 54° 100° (E) 09:43:55 437.445
AAUSAT CUBESAT 2 20 Dec 09:36:30 09:40:25 37° 286° (WNW) 09:44:18 437.432
POLYITAN 1 20 Dec 09:38:32 09:42:17 32° 73° (ENE) 09:46:02 437.675
RS-15 20 Dec 09:38:57 09:46:22 21° 102° (ESE) 09:53:41 29.354- 29.394
NANOSAT C BR1 20 Dec 09:41:05 09:44:52 34° 73° (ENE) 09:48:40 145.865
ANTELSAT 20 Dec 09:42:28 09:46:43 60° 76° (ENE) 09:51:06 437.575/2403.000
HO-68 20 Dec 09:44:10 09:50:42 41° 292° (WNW) 09:57:14 435.675
ZACube-1 20 Dec 09:47:14 09:51:41 53° 100° (E) 09:56:10 437.345
VELOX 1 20 Dec 09:48:14 09:51:55 25° 97° (E) 09:55:34 145.980
CINEMA 3 20 Dec 09:48:26 09:53:10 62° 284° (WNW) 09:58:04 145.822/145.860
CANX-2 20 Dec 09:49:44 09:52:19 16° 291° (WNW) 09:54:54 2200.000
QB50P1 20 Dec 09:55:05 09:59:10 52° 75° (ENE) 10:03:16 145.935-145.965
YUBILEINY 20 Dec 09:57:30 10:04:45 29° 75° (ENE) 10:11:58 435.215
BRITE-PL 20 Dec 10:03:30 10:06:00 14° 290° (WNW) 10:08:35 437.365/2234.400
COMPASS 1 20 Dec 10:13:21 10:15:12 13° 292° (WNW) 10:17:02 437.405
UWE-3 20 Dec 10:13:45 10:18:19 61° 284° (WNW) 10:22:55 435.000/436.395/437.385
FUNcube-1 20 Dec 10:14:02 10:18:35 74° 283° (WNW) 10:23:09 145.935
O/OREOS (USA 219) 20 Dec 10:16:42 10:20:54 37° 68° (ENE) 10:25:07 437.305
TIGRISAT 20 Dec 10:18:24 10:22:33 48° 260° (W) 10:26:48 435.000
POPSAT HIP 1 20 Dec 10:23:38 10:27:48 65° 259° (W) 10:31:59 437.405
CUSAT 1 20 Dec 10:25:35 10:27:17 13° 293° (WNW) 10:29:10 437.405
JUGNU 20 Dec 10:29:01 10:32:42 17° 164° (SSE) 10:36:24 437.505
AISAT 20 Dec 10:30:32 10:34:59 89° 103° (ESE) 10:39:26 437.250
DELFI C3 20 Dec 10:31:04 10:34:09 21° 289° (WNW) 10:37:13 145.870
DX 1 20 Dec 10:31:27 10:35:03 26° 289° (WNW) 10:38:39 434.975-435.025
50 SAT 20 Dec 10:31:48 10:35:58 81° 102° (ESE) 10:40:07 437.505
CUBEBUG 1 20 Dec 10:38:17 10:42:14 34° 99° (E) 10:46:11 437.445
UNISAT 6 20 Dec 10:48:25 10:51:40 21° 264° (W) 10:54:59 437.425
HUMSAT D 20 Dec 10:51:06 10:55:13 44° 285° (WNW) 10:59:21 437.325/437.525
DUCHIFAT 1 20 Dec 10:52:30 10:56:06 28° 262° (W) 10:59:43 145.980
BUGSAT 1 20 Dec 10:53:08 10:56:52 33° 261° (W) 11:00:35 437.445
UKube-1 20 Dec 11:04:52 11:06:18 12° 293° (WNW) 11:07:44 .
QB50P2 20 Dec 11:06:29 11:09:28 19° 264° (W) 11:12:28 145.880/145.840
CUBEBUG 2 20 Dec 11:13:44 11:15:28 12° 292° (WNW) 11:17:12 437.445
POLYITAN 1 20 Dec 11:15:53 11:18:15 15° 265° (W) 11:20:36 437.675
NANOSAT C BR1 20 Dec 11:18:38 11:20:47 14° 265° (W) 11:22:57 145.865
VELOX 1 20 Dec 11:24:59 11:28:18 21° 290° (WNW) 11:31:37 145.980
ESTCUBE 1 20 Dec 11:25:20 11:29:44 56° 285° (WNW) 11:34:06 437.505/2401.250
ZACube-1 20 Dec 11:26:03 11:27:33 12° 292° (WNW) 11:29:03 437.345
SRMSAT 20 Dec 11:32:32 11:35:27 14° 162° (SSE) 11:38:22 437.500
TISAT 1 20 Dec 11:45:17 11:49:23 49° 100° (E) 11:53:29 437.305
RS-15 20 Dec 11:46:28 11:57:28 77° 298° (WNW) 12:08:25 29.354- 29.394
SPROUT 20 Dec 11:47:28 11:51:38 48° 100° (E) 11:55:48 437.525
YUBILEINY 20 Dec 11:53:28 12:01:40 49° 271° (W) 12:09:54 435.215
O/OREOS (USA 219) 20 Dec 11:57:30 11:59:55 14° 260° (W) 12:02:20 437.305
BEESAT 2 20 Dec 12:05:10 12:08:30 25° 111° (ESE) 12:11:53 435.950
CUBEBUG 1 20 Dec 12:15:48 12:18:16 15° 291° (WNW) 12:20:45 437.445
JUGNU 20 Dec 12:16:15 12:21:12 27° 173° (S) 12:26:08 437.505
SWISSCUBE 20 Dec 12:23:48 12:27:05 19° 96° (E) 12:30:21 437.505
ITUPSAT 1 20 Dec 12:24:23 12:27:24 17° 95° (E) 12:30:24 437.325
PCSat 20 Dec 12:27:30 12:32:02 28° 107° (ESE) 12:36:36 145.827
Oscar 19 20 Dec 12:28:01 12:33:01 56° 74° (ENE) 12:38:03 437.125/150
Gurwin Techsat 1B 20 Dec 12:39:12 12:41:56 14° 66° (ENE) 12:44:41 435.225
ITAMSAT 1 20 Dec 12:43:55 12:48:16 28° 70° (ENE) 12:52:36 435.822/435.867
BEESAT 20 Dec 12:48:02 12:52:18 32° 98° (E) 12:56:32 436.000
ISS 20 Dec 12:49:36 12:52:53 70° 315° (NW) 12:56:11 145.825
BEESAT 3 20 Dec 13:02:52 13:06:50 52° 299° (WNW) 13:10:52 437.485
AIST 2 20 Dec 13:07:59 13:12:07 62° 115° (ESE) 13:16:20 435.215
SRMSAT 20 Dec 13:19:19 13:24:05 25° 171° (S) 13:28:49 437.500
TISAT 1 20 Dec 13:24:08 13:24:43 10° 293° (WNW) 13:25:19 437.305
SPROUT 20 Dec 13:26:13 13:27:15 11° 293° (WNW) 13:28:16 437.525
BEESAT 2 20 Dec 13:43:30 13:46:40 21° 305° (NW) 13:49:52 435.950
AUBIESAT-1 20 Dec 13:49:59 13:54:04 53° 104° (ESE) 13:57:48 437.475
STARS 20 Dec 13:53:13 13:56:27 20° 96° (E) 13:59:41 437.465
KKS-1 20 Dec 13:55:43 13:59:46 33° 99° (E) 14:03:48 437.445
SWISSCUBE 20 Dec 14:00:42 14:04:56 33° 288° (WNW) 14:09:10 437.505
ITUPSAT 1 20 Dec 14:00:59 14:05:20 37° 288° (WNW) 14:09:40 437.325
JUGNU 20 Dec 14:04:42 14:09:46 29° 184° (S) 14:14:48 437.505
RS-15 20 Dec 14:04:49 14:11:49 19° 321° (NW) 14:18:54 29.354- 29.394
Oscar 19 20 Dec 14:10:36 14:12:36 12° 267° (W) 14:14:37 437.125/150
PCSat 20 Dec 14:10:37 14:15:18 30° 301° (WNW) 14:20:01 145.827
M-CUBED/EXP-1 PRIME 20 Dec 14:15:25 14:19:37 60° 289° (WNW) 14:23:24 437.505
Gurwin Techsat 1B 20 Dec 14:16:11 14:21:22 56° 259° (W) 14:26:35 435.225
HORYU 2 20 Dec 14:18:50 14:23:11 57° 75° (ENE) 14:27:35 437.375
ITAMSAT 1 20 Dec 14:23:18 14:27:37 27° 263° (W) 14:31:56 435.822/435.867
BEESAT 20 Dec 14:26:29 14:29:52 20° 291° (WNW) 14:33:13 436.000
JAS-2 20 Dec 14:38:01 14:41:22 14° 63° (ENE) 14:44:37 435.910
AO-7 20 Dec 14:46:48 14:54:45 53° 68° (ENE) 15:02:45 29.400- 29.500
AIST 2 20 Dec 14:50:17 14:51:07 11° 310° (NW) 14:51:58 435.215
SRMSAT 20 Dec 15:07:43 15:12:47 29° 181° (S) 15:17:50 437.500
AIST 1 20 Dec 15:26:35 15:30:00 23° 89° (E) 15:33:24
STARS 20 Dec 15:29:06 15:32:51 27° 288° (WNW) 15:36:36 437.465
KKS-1 20 Dec 15:33:15 15:36:06 17° 291° (WNW) 15:38:56 437.445
GONETS M04 20 Dec 15:52:06 15:59:55 35° 77° (ENE) 16:07:37
JUGNU 20 Dec 15:54:03 15:58:17 20° 193° (SSW) 16:02:30 437.505
CUTE-I 20 Dec 16:13:29 16:15:44 13° 65° (ENE) 16:17:59 437.470
JAS-2 20 Dec 16:17:44 16:25:32 86° 76° (ENE) 16:32:48 435.910
MOZHAYETS 4 20 Dec 16:40:12 16:44:48 69° 101° (E) 16:49:21
AO-7 20 Dec 16:40:54 16:47:40 28° 262° (W) 16:54:31 29.400- 29.500
SRMSAT 20 Dec 16:56:56 17:01:28 23° 191° (S) 17:05:59 437.500
AIST 1 20 Dec 17:04:10 17:07:31 21° 282° (WNW) 17:10:51
Cubesat XI-IV 20 Dec 17:16:40 17:21:55 61° 74° (ENE) 17:27:09 437.490
PRISM 20 Dec 17:26:56 17:30:24 26° 98° (E) 17:33:50 437.425
GONETS M04 20 Dec 17:48:43 17:56:36 40° 272° (W) 18:04:27
CUTE-I 20 Dec 17:49:56 17:55:12 63° 258° (WSW) 18:00:29 437.470
CUBESAT XI-V 20 Dec 18:03:21 18:07:31 33° 98° (E) 18:11:40 437.345
JAS-2 20 Dec 18:07:16 18:10:53 14° 267° (W) 18:14:25 435.910
STRAND 1 20 Dec 18:12:26 18:17:06 36° 99° (E) 18:21:44 437.568
HO-68 20 Dec 18:23:10 18:25:56 13° 59° (ENE) 18:28:41 435.675
MaSat-1 20 Dec 18:35:59 18:38:26 57° 250° (WSW) 18:41:03 437.345
RS-15 20 Dec 18:44:09 18:51:18 18° 38° (NE) 18:58:35 29.354- 29.394
SRMSAT 20 Dec 18:48:12 18:50:03 11° 199° (SSW) 18:51:53 437.500
Cubesat XI-IV 20 Dec 19:00:15 19:02:17 12° 267° (W) 19:04:18 437.490
CANX-2 20 Dec 19:02:38 19:04:24 12° 68° (ENE) 19:06:09 2200.000
PRISM 20 Dec 19:02:53 19:05:42 18° 290° (WNW) 19:08:30 437.425
COMPASS 1 20 Dec 19:23:47 19:26:02 14° 69° (ENE) 19:28:18 437.405
CUSAT 1 20 Dec 19:23:48 19:30:42 30° 75° (ENE) 19:37:53 437.405
ISS 20 Dec 19:24:22 19:24:58 10° 32° (NNE) 19:25:34 145.825
SEEDS 20 Dec 19:28:28 19:31:34 20° 71° (ENE) 19:34:40 437.485
BRITE-PL 20 Dec 19:30:06 19:33:38 26° 73° (ENE) 19:37:06 437.365/2234.400
CUTE 1.7 + AOD 2 20 Dec 19:31:30 19:35:01 26° 72° (ENE) 19:38:33 437.475
CUBESAT XI-V 20 Dec 19:41:39 19:44:39 17° 291° (WNW) 19:47:39 437.345
SO-50 20 Dec 19:50:22 19:54:24 35° 112° (ESE) 19:58:33 436.795
STRAND 1 20 Dec 19:52:19 19:55:59 20° 292° (WNW) 19:59:38 437.568
GOMX 1 20 Dec 19:56:01 19:59:52 37° 74° (ENE) 20:03:42 467.674
HO-68 20 Dec 20:05:23 20:12:35 86° 74° (ENE) 20:19:47 435.675
Oscar 11 20 Dec 20:08:21 20:11:36 21° 71° (ENE) 20:14:51 145.826/435.025
DANDE 20 Dec 20:14:52 20:22:51 62° 81° (E) 20:31:26 436.750
UKube-1 20 Dec 20:17:04 20:20:14 20° 70° (ENE) 20:23:24 .
DOVE 4 20 Dec 20:20:46 20:24:49 54° 76° (ENE) 20:28:52 437.250
AAUSAT CUBESAT 2 20 Dec 20:21:46 20:25:55 68° 77° (ENE) 20:30:07 437.432
CUBEBUG 2 20 Dec 20:28:55 20:32:04 21° 71° (ENE) 20:35:16 437.445
CANX-2 20 Dec 20:35:53 20:39:54 41° 261° (W) 20:43:57 2200.000
ZACube-1 20 Dec 20:39:13 20:42:14 20° 71° (ENE) 20:45:18 437.345
VELOX 1 20 Dec 20:42:48 20:44:34 12° 67° (ENE) 20:46:20 145.980
CINEMA 3 20 Dec 20:45:18 20:49:23 61° 76° (ENE) 20:53:31 145.822/145.860
RS-15 20 Dec 20:54:31 21:05:55 73° 61° (ENE) 21:17:48 29.354- 29.394
COMPASS 1 20 Dec 20:57:34 21:01:24 34° 262° (W) 21:05:17 437.405
ISS 20 Dec 20:58:37 21:01:52 73° 227° (SW) 21:05:06 145.825
SEEDS 20 Dec 21:03:43 21:07:11 24° 263° (W) 21:10:41 437.485
FUNcube-1 20 Dec 21:04:55 21:08:49 41° 74° (ENE) 21:12:47 145.935
UWE-3 20 Dec 21:05:50 21:09:52 52° 75° (ENE) 21:13:59 435.000/436.395/437.385
CUTE 1.7 + AOD 2 20 Dec 21:07:49 21:10:51 19° 265° (W) 21:13:55 437.475
BRITE-PL 20 Dec 21:09:26 21:12:08 17° 264° (W) 21:14:48 437.365/2234.400
